sat.trackr.live / text

‹ back to catalog

STARLINK-32926

NORAD 63025 · 2025-032W

PAYLOAD ACTIVE UNKNOWN

§ Identity

Operator
Country
US
Launch date
2025-02-15
Launch site
AFETR
Launch vehicle
Mass (kg)
RCS (m²)

Purposes: comms

External: N2YO · Heavens-Above · Gunter

§ Orbital elements

Epoch: 2026-05-24T17:38:37.061952Z

Period
94.27 min
Inclination
42.9997°
Eccentricity
0.0001425
Mean motion
15.27542094 rev/d
Perigee alt
482.2 km
Apogee alt
484.1 km
Semi-major
6,861.3 km
B*
8.7125e-4
RAAN
266.2810°
Arg perigee
282.6061°
Mean anomaly
77.4632°
Rev number
7,225

§ Raw data

STARLINK-329261 63025U 25032W   26144.73515118  .00023762  00000+0  87125-3 0  99912 63025  42.9997 266.2810 0001425 282.6061  77.4632 15.27542094 72254

JSON: /api/v1/satellites/63025 · /tle

For live sub-satellite position, see the globe view (requires WebGL).

§ Visibility from observer

Set your observer location to see the next 7 days of passes ≥ 10°. The values pass through the URL so the page stays shareable.

No JS? Fill the form by hand. The geolocation button needs JavaScript.